[[{"header":{"parameterUnit":"m.s-1","parameterCategory":1,"la1":30.2991,"la2":30.254,"lo1":-89.0895,"lo2":-89.0444,"dy":0.0017,"dx":0.0017,"nx":28,"ny":28,"refTime":"2024-03-30T21:00:00:Z","depth":0,"parameterNumber":2,"parameterNumberName":"U-component_of_WINDS"},"data":[0,0,0,0,0,0,0,0,0,0,0,0,0,0,0,0,0,0,0,0,0,0,0,0,0,0,0,0,0,0,0,0,0,0,0,0,0,0,0,0,0,0,0,0,0,0,0,0,0,0,0,0,0,0,0,0,0,0,-2.2978,-2.2978,0,-2.2979,-2.2979,-2.2979,-2.2955,-2.2954,-2.2954,-2.2953,-2.2953,-2.2953,-2.2954,0,0,0,0,0,0,0,0,0,0,0,0,0,-2.2955,-2.2955,-2.2978,-2.2978,-2.2978,-2.2979,-2.2979,-2.2979,-2.2955,-2.2954,-2.2954,-2.2953,-2.2953,-2.2953,-2.2954,0,0,0,0,0,0,0,0,0,0,0,0,0,-2.2961,-2.2956,-2.2978,-2.2966,-2.2965,-2.2979,-2.2979,-2.2979,-2.2955,-2.2954,-2.2953,-2.2953,-2.2952,-2.2953,-2.2954,-2.2978,0,0,-2.2957,-2.2957,0,0,0,0,0,0,0,0,-2.2961,-2.2962,-2.2968,-2.2967,-2.2966,-2.2966,-2.297,-2.2978,-2.2956,-2.2959,-2.2953,-2.2952,-2.2958,-2.2958,-2.296,-2.2978,-2.2978,-2.2957,-2.2957,-2.2958,-2.2958,0,0,0,0,0,0,0,-2.296,-2.2962,-2.2978,-2.2968,-2.2967,-2.2961,-2.296,-2.2972,-2.2964,-2.2959,-2.2957,-2.2957,-2.2957,-2.296,-2.296,-2.2978,-2.2957,-2.2958,-2.2958,-2.2958,-2.3013,-2.3014,0,0,0,0,0,0,-2.2962,-2.2962,-2.2978,-2.2978,-2.2961,-2.2962,-2.2962,-2.2967,-2.2964,-2.2962,-2.2958,-2.2956,-2.2959,-2.2959,-2.296,-2.2986,-2.2958,-2.2959,-2.2959,-2.3012,-2.3013,-2.3014,0,0,0,0,0,0,-2.2961,-2.2963,-2.2978,-2.2969,-2.2971,-2.2963,-2.2969,-2.2967,-2.297,-2.2963,-2.2961,-2.2962,-2.2958,-2.2959,-2.2973,-2.2986,-2.2959,-2.296,-2.3011,-2.3012,-2.3014,-2.3039,0,0,0,0,0,0,-2.2961,-2.2963,-2.2973,-2.297,-2.2971,-2.2992,-2.297,-2.2968,-2.2971,-2.2969,-2.2966,-2.2965,-2.2957,-2.2972,-2.2974,-2.2986,-2.296,-2.301,-2.3012,-2.3013,-2.3037,-2.3041,-2.3045,0,0,0,0,0,-2.296,-2.298,-2.2974,-2.2976,-2.2983,-2.2993,-2.2994,-2.2984,-2.2973,-2.2981,-2.2977,-2.2965,-2.2984,-2.2974,-2.2976,-2.2989,-2.3009,-2.3011,-2.3013,-2.3035,-2.304,-2.3045,0,0,0,0,0,0,-2.2985,-2.298,-2.2972,-2.2992,-2.2993,-2.2989,-2.3,-2.299,-2.2994,-2.2992,-2.298,-2.2979,-2.2995,-2.2994,-2.2982,-2.301,-2.2994,-2.2997,-2.3011,-2.3015,-2.3019,-2.3018,-2.2961,0,0,0,0,0,-2.2993,-2.3002,-2.2997,-2.3015,-2.3016,-2.3008,-2.3012,-2.3004,-2.3005,-2.3005,-2.3001,-2.3002,-2.3007,-2.3012,-2.3017,-2.3037,-2.3035,-2.3047,-2.3051,-2.3054,-2.3056,-2.3064,-2.3069,-2.3021,-2.3021,-2.3021,0,0,-2.301,-2.3008,-2.3014,-2.302,-2.302,-2.3028,-2.3008,-2.3018,-2.3024,-2.3006,-2.3019,-2.3017,-2.3016,-2.3033,-2.304,-2.3032,-2.3069,-2.3057,-2.3059,-2.3059,-2.3067,-2.3071,-2.3075,-2.3023,-2.3022,-2.3022,0,0,-2.3043,-2.3044,-2.3058,-2.3058,-2.3057,-2.3052,-2.3055,-2.3052,-2.305,-2.3063,-2.3049,-2.3055,-2.3066,-2.3066,-2.3067,-2.3099,-2.3088,-2.3101,-2.3121,-2.3129,-2.3133,-2.3136,-2.3146,-2.3149,-2.3104,-2.3104,-2.3104,0,-2.3064,-2.3076,-2.3066,-2.3077,-2.3079,-2.3063,-2.3076,-2.3077,-2.3078,-2.308,-2.3071,-2.3083,-2.3082,-2.3097,-2.3105,-2.3107,-2.3109,-2.3101,-2.3133,-2.3136,-2.3139,-2.3148,-2.3152,-2.3105,-2.3105,-2.3105,-2.3105,0,-2.31,-2.3108,-2.312,-2.3121,-2.3125,-2.3137,-2.3128,-2.3132,-2.3125,-2.312,-2.3132,-2.313,-2.3134,-2.3137,-2.313,-2.3151,-2.3146,-2.3136,-2.3119,-2.3145,-2.3153,-2.3157,-2.3107,-2.3107,-2.3106,-2.3106,0,0,-2.3149,-2.3144,-2.3148,-2.3147,-2.3146,-2.3152,-2.3163,-2.3166,-2.3169,-2.3171,-2.3178,-2.3187,-2.3177,-2.3179,-2.3171,-2.3179,-2.3202,-2.3167,-2.3167,-2.3172,-2.3223,-2.3229,-2.3234,-2.3195,-2.3196,-2.3196,-2.3222,0,-2.318,-2.3197,-2.3188,-2.3207,-2.3214,-2.3199,-2.3208,-2.3207,-2.3203,-2.3207,-2.3203,-2.3208,-2.3195,-2.3196,-2.3203,-2.3198,-2.3212,-2.3196,-2.32,-2.3201,-2.3199,-2.3238,-2.3245,-2.327,-2.3226,-2.3226,-2.3226,0,-2.3218,-2.322,-2.3239,-2.3234,-2.3237,-2.3245,-2.3247,-2.3252,-2.325,-2.3247,-2.3248,-2.3238,-2.3247,-2.3232,-2.3243,-2.3233,-2.3234,-2.3232,-2.3233,-2.3231,-2.3214,-2.3236,-2.3278,-2.3281,-2.3232,-2.3231,-2.3231,0,-2.3249,-2.3257,-2.3269,-2.327,-2.3265,-2.3271,-2.3269,-2.3267,-2.3269,-2.327,-2.3271,-2.3274,-2.3274,-2.3276,-2.3267,-2.3257,-2.3279,-2.3264,-2.3275,-2.3275,-2.3279,-2.3278,-2.332,-2.3283,-2.3283,-2.3283,-2.3283,0,-2.3283,-2.3295,-2.3283,-2.329,-2.3302,-2.3292,-2.3304,-2.33,-2.3298,-2.3304,-2.3292,-2.3297,-2.3285,-2.3289,-2.3283,-2.3292,-2.3293,-2.3289,-2.3287,-2.3289,-2.3289,-2.3289,-2.3286,-2.3284,-2.3284,-2.3283,-2.3283,0,-2.332,-2.3312,-2.3324,-2.3318,-2.3317,-2.3326,-2.3321,-2.3326,-2.3321,-2.3328,-2.3329,-2.3321,-2.3325,-2.3316,-2.3319,-2.3314,-2.3327,-2.3323,-2.3327,-2.3325,-2.3336,-2.3335,-2.3377,-2.3381,-2.3344,-2.3344,-2.3345,0,-2.3341,-2.335,-2.3344,-2.3347,-2.3346,-2.3351,-2.3352,-2.3342,-2.3344,-2.3343,-2.3348,-2.3351,-2.3353,-2.336,-2.3353,-2.3355,-2.335,-2.3364,-2.335,-2.3351,-2.3348,-2.3346,-2.3346,-2.3367,-2.3367,-2.3368,-2.3368,0,-2.3379,-2.3375,-2.3378,-2.3379,-2.3381,-2.3382,-2.3382,-2.3385,-2.3374,-2.3377,-2.338,-2.3381,-2.3384,-2.3386,-2.3386,-2.3384,-2.3374,-2.3373,-2.3375,-2.3377,-2.3378,-2.3376,-2.3333,-2.3372,-2.3371,-2.3371,-2.3371,-2.3371,-2.3407,-2.3413,-2.341,-2.3413,-2.3412,-2.3412,-2.3416,-2.3411,-2.3414,-2.3415,-2.3409,-2.3414,-2.3411,-2.341,-2.3408,-2.3411,-2.3404,-2.3408,-2.3409,-2.341,-2.341,-2.3379,-2.3411,-2.3411,-2.3411,-2.3411,-2.3411,0,-2.3443,-2.344,-2.3443,-2.3442,-2.3445,-2.3436,-2.3434,-2.3437,-2.3441,-2.3439,-2.344,-2.3444,-2.3446,-2.344,-2.3441,-2.3444,-2.3439,-2.3444,-2.3443,-2.3442,-2.3417,-2.3414,-2.3448,-2.3448,-2.3448,-2.3448,-2.3448,-2.3448,-2.3461,-2.347,-2.3465,-2.3473,-2.347,-2.3474,-2.3474,-2.3473,-2.3471,-2.3476,-2.3477,-2.3473,-2.3469,-2.3469,-2.3471,-2.3469,-2.3469,-2.3475,-2.3471,-2.3448,-2.3444,-2.3441,-2.3438,-2.3476,-2.3476,-2.3496,-2.3496,-2.3496]},{"header":{"parameterUnit":"m.s-1","parameterCategory":1,"la1":30.2991,"la2":30.254,"lo1":-89.0895,"lo2":-89.0444,"dy":0.0017,"dx":0.0017,"nx":28,"ny":28,"refTime":"2024-03-30T21:00:00:Z","depth":0,"parameterNumber":3,"parameterNumberName":"V-component_of_WINDS"},"data":[0,0,0,0,0,0,0,0,0,0,0,0,0,0,0,0,0,0,0,0,0,0,0,0,0,0,0,0,0,0,0,0,0,0,0,0,0,0,0,0,0,0,0,0,0,0,0,0,0,0,0,0,0,0,0,0,0,0,3.6225,3.6226,0,3.6332,3.6333,3.6334,3.6394,3.6395,3.6395,3.6395,3.6504,3.6506,3.6509,0,0,0,0,0,0,0,0,0,0,0,0,0,3.6074,3.6076,3.6225,3.6226,3.6227,3.6332,3.6333,3.6335,3.6394,3.6395,3.6395,3.6395,3.6503,3.6506,3.6509,0,0,0,0,0,0,0,0,0,0,0,0,0,3.6156,3.6077,3.6224,3.627,3.6275,3.6331,3.6333,3.6335,3.6394,3.6395,3.6395,3.6395,3.6502,3.6506,3.651,3.6529,0,0,3.6522,3.6524,0,0,0,0,0,0,0,0,3.6151,3.6161,3.6262,3.6267,3.6273,3.635,3.632,3.64,3.6394,3.6349,3.6395,3.6395,3.6452,3.646,3.648,3.6534,3.6539,3.6523,3.6525,3.6527,3.6528,0,0,0,0,0,0,0,3.6145,3.6157,3.6267,3.6263,3.627,3.6285,3.6297,3.6335,3.6398,3.6353,3.6358,3.6369,3.6455,3.6476,3.6483,3.654,3.6522,3.6526,3.6529,3.653,3.662,3.662,0,0,0,0,0,0,3.6132,3.6152,3.6264,3.627,3.6211,3.6288,3.6301,3.6325,3.6397,3.6409,3.6369,3.6372,3.6469,3.6478,3.6487,3.6517,3.6527,3.6531,3.6533,3.662,3.662,3.662,0,0,0,0,0,0,3.6129,3.6142,3.6259,3.6212,3.6229,3.629,3.6316,3.6327,3.6347,3.641,3.6421,3.6378,3.6469,3.6481,3.6519,3.6521,3.6532,3.6536,3.662,3.662,3.662,3.6575,0,0,0,0,0,0,3.6124,3.614,3.6147,3.6212,3.6231,3.6289,3.6316,3.6329,3.6354,3.6359,3.6422,3.6432,3.6471,3.6513,3.6523,3.6527,3.6539,3.662,3.662,3.662,3.6576,3.6573,3.657,0,0,0,0,0,3.6119,3.6129,3.6147,3.616,3.6241,3.6289,3.63,3.6344,3.6354,3.6363,3.6403,3.643,3.6519,3.6516,3.6528,3.6533,3.662,3.662,3.662,3.6578,3.6574,3.657,0,0,0,0,0,0,3.6062,3.6139,3.6159,3.6191,3.6233,3.6299,3.6311,3.6338,3.6377,3.638,3.6433,3.6447,3.648,3.651,3.6505,3.6558,3.6573,3.6575,3.6537,3.6533,3.653,3.6523,3.6543,0,0,0,0,0,3.6054,3.6086,3.6151,3.6173,3.6193,3.6248,3.6271,3.6301,3.6347,3.6365,3.6408,3.6451,3.6489,3.6513,3.6551,3.6581,3.6597,3.6591,3.6588,3.6585,3.6587,3.6608,3.6607,3.6619,3.6619,3.6619,0,0,3.6036,3.6082,3.6099,3.6163,3.6199,3.6232,3.6263,3.6295,3.6321,3.6369,3.6409,3.6442,3.6494,3.6529,3.6546,3.6555,3.6587,3.6585,3.6582,3.6586,3.6608,3.6606,3.6605,3.6619,3.6619,3.6619,0,0,3.6021,3.6058,3.6082,3.6118,3.6173,3.621,3.6216,3.6279,3.6303,3.6343,3.6381,3.6412,3.6476,3.6512,3.6539,3.6541,3.6568,3.6552,3.6537,3.6557,3.6556,3.6555,3.6558,3.6558,3.6554,3.6553,3.6553,0,3.5992,3.6043,3.6091,3.6123,3.6151,3.6198,3.6224,3.6256,3.632,3.6339,3.6348,3.6432,3.647,3.6515,3.6516,3.6535,3.6545,3.6545,3.6552,3.6552,3.6552,3.6556,3.6556,3.6551,3.6552,3.6552,3.6552,0,3.6007,3.6041,3.6054,3.6117,3.6146,3.6174,3.6228,3.6252,3.6281,3.6317,3.6359,3.6407,3.6457,3.647,3.6497,3.652,3.6524,3.6542,3.6558,3.6548,3.6552,3.6554,3.6548,3.6549,3.655,3.655,0,0,3.5958,3.6048,3.6052,3.6083,3.6148,3.6176,3.6208,3.6258,3.6278,3.6322,3.6351,3.6405,3.6423,3.6453,3.6486,3.6503,3.6505,3.652,3.6522,3.6516,3.6535,3.6522,3.6522,3.6523,3.6523,3.6524,3.6531,0,3.5954,3.6013,3.6058,3.61,3.6134,3.6181,3.6209,3.6252,3.6288,3.6322,3.6362,3.64,3.642,3.6439,3.6458,3.65,3.6509,3.65,3.6551,3.6553,3.6538,3.6524,3.651,3.6515,3.6533,3.6533,3.6533,0,3.5956,3.6,3.6045,3.611,3.6126,3.615,3.6201,3.6234,3.6285,3.631,3.6345,3.6379,3.6416,3.6429,3.6481,3.6474,3.6498,3.6522,3.6523,3.653,3.6543,3.6532,3.6517,3.6518,3.6536,3.6536,3.6536,0,3.5919,3.5988,3.6026,3.605,3.6125,3.6142,3.6174,3.6226,3.6254,3.6298,3.6318,3.6365,3.6392,3.6428,3.6475,3.648,3.6523,3.6539,3.6546,3.6545,3.6553,3.6552,3.6543,3.6566,3.6566,3.6566,3.6566,0,3.591,3.5937,3.601,3.6033,3.6065,3.6118,3.6148,3.6184,3.623,3.6262,3.6305,3.6334,3.6393,3.643,3.6466,3.6505,3.6516,3.6538,3.6548,3.6535,3.6532,3.6552,3.6553,3.6567,3.6567,3.6566,3.6566,0,3.5873,3.5924,3.5968,3.6037,3.6055,3.6075,3.6135,3.616,3.6198,3.6238,3.625,3.6311,3.6356,3.6407,3.6468,3.6493,3.653,3.6543,3.6513,3.6519,3.6523,3.6523,3.6527,3.6531,3.655,3.655,3.655,0,3.5865,3.5887,3.5959,3.5984,3.6015,3.6054,3.6084,3.6137,3.6166,3.6228,3.6245,3.6294,3.6336,3.6406,3.6456,3.6504,3.652,3.6518,3.6527,3.6514,3.6522,3.652,3.6524,3.6515,3.6515,3.6514,3.6514,0,3.5846,3.587,3.5911,3.5962,3.5996,3.6038,3.6082,3.61,3.6162,3.6193,3.624,3.6273,3.6337,3.6386,3.6441,3.6474,3.6505,3.6511,3.6515,3.6503,3.6485,3.6497,3.6507,3.651,3.6511,3.6511,3.6511,3.6511,3.5825,3.5847,3.5902,3.5948,3.5986,3.6027,3.6055,3.6098,3.6138,3.6195,3.6224,3.6272,3.6325,3.6402,3.6435,3.6474,3.6483,3.6489,3.6491,3.6492,3.6489,3.6478,3.6484,3.6484,3.6484,3.6484,3.6484,0,3.5809,3.5847,3.5888,3.5949,3.5985,3.6012,3.6062,3.6091,3.6133,3.618,3.6221,3.6277,3.6325,3.6379,3.643,3.6451,3.6467,3.6463,3.6462,3.647,3.6477,3.6469,3.645,3.645,3.645,3.645,3.645,3.645,3.5805,3.5846,3.5878,3.5939,3.5977,3.6025,3.6052,3.609,3.6128,3.6189,3.623,3.6265,3.6316,3.6372,3.6417,3.6432,3.645,3.6442,3.6461,3.6466,3.6469,3.6472,3.6465,3.6445,3.6445,3.6452,3.6452,3.6452]}]]